Monticello, KY

8:14 PM CDT on September 30, 2016 (GMT -0500)
Wayne County

Weather History for KEKQ - April, 2013

Change the Weather History Date:

Thursday, April 11, 2013

  Actual Average Record
Temperature  
Mean Temperature 68 °F -  
Max Temperature 79 °F 67 °F 84 °F (1977)
Min Temperature 57 °F 38 °F 20 °F (1989)
Cooling Degree Days 3    
Growing Degree Days 18 (Base 50)    
Moisture  
Dew Point 58 °F    
Average Humidity 85    
Maximum Humidity 100    
Minimum Humidity 46    
Precipitation  
Precipitation 0.85 in - - ()
Sea Level Pressure  
Sea Level Pressure 29.72 in    
Wind  
Wind Speed 11 mph (SSW)    
Max Wind Speed 25 mph    
Max Gust Speed 33 mph    
Visibility 6 miles    
Events Fog , Rain , Thunderstorm    
Averages and records for this station are not official NWS values.
T = Trace of Precipitation, MM = Missing Value Source: NWS Daily Summary

Daily Weather History Graph

Daily Weather History Graph

Search for Another Location

Airport or City:

Trip Planner

Search our weather history database for the weather conditions in past years. The results will help you decide how hot, cold, wet, or windy it might be!

Date:

Astronomy

Apr. 11, 2013 Rise Set
Actual Time 6:10 AM CDT 7:10 PM CDT
Civil Twilight 5:44 AM CDT 7:37 PM CDT
Nautical Twilight 5:12 AM CDT 8:08 PM CDT
Astronomical Twilight 4:40 AM CDT 8:41 PM CDT
Moon 6:43 AM CDT (4/11) 8:41 PM CDT (4/11)
Length of Visible Light 13h 53m
Length of Day
13h 00m
New Moon, 2% of the Moon is Illuminated
Apr 11
New Moon
Apr 18
First Quarter
Apr 25
Full
May 2
Last Quarter
May 9
New

Hourly Weather History & Observations

Time (CDT) Temp. Dew Point Humidity Pressure Visibility Wind Dir Wind Speed Gust Speed Precip Events Conditions
12:56 AM 72.9 °F 55.9 °F 55% 29.86 in 10.0 mi South 9.2 mph - N/A   Partly Cloudy
1:56 AM 72.0 °F 55.9 °F 57% 29.84 in 10.0 mi South 10.4 mph - N/A   Clear
2:56 AM 70.9 °F 55.9 °F 59% 29.83 in 10.0 mi South 8.1 mph - N/A   Clear
3:56 AM 70.9 °F 55.9 °F 59% 29.83 in 10.0 mi South 8.1 mph - N/A   Clear
4:56 AM 70.9 °F 56.8 °F 61% 29.83 in 10.0 mi SSW 10.4 mph - N/A   Clear
5:56 AM 70.9 °F 56.8 °F 61% 29.83 in 10.0 mi South 15.0 mph - N/A   Clear
6:56 AM 70.0 °F 57.9 °F 65% 29.85 in 10.0 mi South 12.7 mph - N/A   Clear
7:56 AM 70.9 °F 59.0 °F 66% 29.85 in 10.0 mi South 12.7 mph - N/A   Clear
8:56 AM 72.0 °F 57.9 °F 61% 29.84 in 10.0 mi SSW 11.5 mph - N/A   Mostly Cloudy
9:56 AM 73.9 °F 57.9 °F 57% 29.83 in 10.0 mi SW 8.1 mph - N/A   Mostly Cloudy
10:56 AM 73.9 °F 56.8 °F 55% 29.82 in 10.0 mi SW 11.5 mph - N/A   Mostly Cloudy
11:56 AM 77.0 °F 56.8 °F 50% 29.78 in 10.0 mi SSW 11.5 mph - N/A   Scattered Clouds
12:56 PM 77.0 °F 56.8 °F 50% 29.74 in 10.0 mi South 16.1 mph - N/A   Scattered Clouds
1:56 PM 75.9 °F 57.9 °F 54% 29.70 in 10.0 mi South 13.8 mph - N/A   Scattered Clouds
2:56 PM 79.0 °F 56.8 °F 46% 29.65 in 10.0 mi South 18.4 mph 26.5 mph N/A   Scattered Clouds
3:56 PM 77.9 °F 56.8 °F 48% 29.61 in 10.0 mi SSE 25.3 mph 32.2 mph N/A   Scattered Clouds
4:46 PM 66.2 °F 59.0 °F 78% 29.66 in 8.0 mi West 20.7 mph 33.4 mph 0.00 in Rain Light Rain
4:49 PM 64.4 °F 60.8 °F 88% 29.67 in 1.8 mi WNW 25.3 mph 33.4 mph 0.02 in Rain Light Rain
4:56 PM 59.9 °F 59.9 °F 100% 29.70 in 0.5 mi WNW 20.7 mph 24.2 mph 0.09 in Fog , Rain Heavy Rain
4:58 PM 60.8 °F 60.8 °F 100% 29.70 in 0.5 mi WNW 19.6 mph 24.2 mph 0.01 in Fog , Rain , Thunderstorm Heavy Thunderstorms and Rain
5:04 PM 60.8 °F 60.8 °F 100% 29.72 in 0.5 mi WNW 19.6 mph - 0.04 in Fog , Rain , Thunderstorm Heavy Thunderstorms and Rain
5:15 PM 59.0 °F 59.0 °F 100% 29.72 in - WNW 18.4 mph 28.8 mph 0.23 in Rain , Thunderstorm Heavy Thunderstorms and Rain
5:28 PM 59.0 °F 59.0 °F 100% 29.73 in 0.8 mi West 8.1 mph 20.7 mph 0.28 in Rain , Thunderstorm Thunderstorms and Rain
5:31 PM 59.0 °F 59.0 °F 100% 29.73 in 1.2 mi West 10.4 mph 18.4 mph 0.28 in Rain , Thunderstorm Light Thunderstorms and Rain
5:34 PM 59.0 °F 59.0 °F 100% 29.73 in 2.0 mi WNW 9.2 mph - 0.28 in Rain Light Rain
5:43 PM 59.0 °F 59.0 °F 100% 29.74 in 1.2 mi West 11.5 mph - 0.31 in Rain Heavy Rain
5:56 PM 59.0 °F 59.0 °F 100% 29.72 in 5.0 mi WNW 5.8 mph - 0.31 in Rain Light Rain
6:15 PM 59.0 °F 59.0 °F 100% 29.72 in 3.0 mi NW 6.9 mph - 0.01 in Rain Light Rain
6:22 PM 59.0 °F 59.0 °F 100% 29.72 in 4.0 mi NW 5.8 mph - 0.01 in Rain Light Rain
6:33 PM 59.0 °F 59.0 °F 100% 29.72 in 4.0 mi NW 4.6 mph - 0.03 in Rain Rain
6:39 PM 59.0 °F 59.0 °F 100% 29.73 in 1.8 mi NW 4.6 mph - 0.06 in Rain Heavy Rain
6:44 PM 59.0 °F 59.0 °F 100% 29.72 in 1.2 mi NNW 4.6 mph - 0.08 in Rain Heavy Rain
6:56 PM 59.0 °F 59.0 °F 100% 29.73 in 1.5 mi Calm Calm - 0.13 in Rain Heavy Rain
7:03 PM 57.2 °F 57.2 °F 100% 29.73 in 1.5 mi South 3.5 mph - 0.03 in Rain Heavy Rain
7:11 PM 57.2 °F 57.2 °F 100% 29.74 in 1.2 mi SSE 4.6 mph - 0.06 in Rain Rain
7:16 PM 57.2 °F 57.2 °F 100% 29.74 in 1.5 mi SE 4.6 mph - 0.08 in Rain Rain
7:29 PM 57.2 °F 57.2 °F 100% 29.72 in 2.0 mi ESE 4.6 mph - 0.14 in Rain , Thunderstorm Heavy Thunderstorms and Rain
7:44 PM 57.2 °F 57.2 °F 100% 29.70 in 3.0 mi ESE 6.9 mph - 0.18 in Rain Rain
7:56 PM 57.9 °F 57.9 °F 100% 29.70 in 4.0 mi ESE 6.9 mph - 0.20 in Rain , Thunderstorm Rain
8:03 PM 57.2 °F 57.2 °F 100% 29.70 in 5.0 mi SE 11.5 mph - 0.01 in Rain , Thunderstorm Light Thunderstorms and Rain
8:10 PM 57.2 °F 57.2 °F 100% 29.68 in 4.0 mi SE 12.7 mph - 0.02 in Rain Rain
8:27 PM 57.2 °F 57.2 °F 100% 29.67 in 2.5 mi SE 11.5 mph - 0.07 in Rain Rain
8:36 PM 57.2 °F 57.2 °F 100% 29.65 in 3.0 mi SE 16.1 mph - 0.09 in Rain Rain
8:43 PM 57.2 °F 57.2 °F 100% 29.60 in 2.0 mi ESE 21.9 mph 26.5 mph 0.12 in Rain Rain
8:48 PM 57.2 °F 57.2 °F 100% 29.62 in 3.0 mi SE 16.1 mph 27.6 mph 0.12 in Rain Light Rain
8:56 PM 59.0 °F 59.0 °F 100% 29.60 in 10.0 mi ESE 12.7 mph 23.0 mph 0.12 in Rain Light Rain
9:32 PM 59.0 °F 59.0 °F 100% 29.64 in 10.0 mi Variable 3.5 mph - 0.00 in   Partly Cloudy
9:56 PM 59.0 °F 59.0 °F 100% 29.65 in 10.0 mi SE 9.2 mph - 0.00 in   Mostly Cloudy
10:12 PM 59.0 °F 59.0 °F 100% 29.63 in 10.0 mi SE 12.7 mph - N/A   Mostly Cloudy
10:56 PM 59.9 °F 59.0 °F 97% 29.60 in 10.0 mi South 9.2 mph - N/A   Partly Cloudy
11:56 PM 61.9 °F 59.0 °F 90% 29.59 in 10.0 mi South 11.5 mph - N/A   Overcast